sat.trackr.live / text

‹ back to catalog

STARLINK-11258 [DTC]

NORAD 62598 · 2025-008M

PAYLOAD ACTIVE UNKNOWN

§ Identity

Operator
Country
US
Launch date
2025-01-13
Launch site
AFETR
Launch vehicle
Mass (kg)
RCS (m²)

Purposes: comms

External: N2YO · Heavens-Above · Gunter

§ Orbital elements

Epoch: 2026-09-21T09:19:27.683904Z

Period
91.65 min
Inclination
43.0008°
Eccentricity
0.0003877
Mean motion
15.71199270 rev/d
Perigee alt
352.9 km
Apogee alt
358.1 km
Semi-major
6,733.6 km
B*
9.5825e-4
RAAN
26.4591°
Arg perigee
153.6652°
Mean anomaly
206.4413°
Rev number
9,806

§ Raw data

STARLINK-11258 [DTC]1 62598U 25008M   26264.38851486  .00126324  00000+0  95825-3 0  99972 62598  43.0008  26.4591 0003877 153.6652 206.4413 15.71199270 98062

JSON: /api/v1/satellites/62598 · /tle

For live sub-satellite position, see the globe view (requires WebGL).

§ Visibility from observer

Set your observer location to see the next 7 days of passes ≥ 10°. The values pass through the URL so the page stays shareable.

No JS? Fill the form by hand. The geolocation button needs JavaScript.